SHIJIAN-17 (SJ-17) (41838 NORAD) Tracking and Keplerian Element Data

This shows tracking and keplerian element data for the satellite.

Feedback or suggestion? Click here.




ElementValue
Catalog41838
NameSHIJIAN-17 (SJ-17)
Epoch Orbit1792
Epoch Day269.93893981
Epoch Year2021
RAAN92.0852
Inclination1.3663
Eccentricity0.000125
Argument of Perigee82.3407
Mean Anonmoly287.0837
Mean Motion1.00269122
Decay Rate-3.64E-06
L11 41838U 16065A 21269.93893981 -.00000364 00000-0 00000-0 0 9996
L22 41838 1.3663 92.0852 0001250 82.3407 287.0837 1.00269122 17920

Live tracking and technical data element details for SHIJIAN-17 (SJ-17) (NORAD 41838). SHIJIAN-17 (SJ-17) can be tracked NOW for your location showing map with azimuth and elevation plus other details from your city location.

Track the satellite on the map from your city or location and see movement details for azimuth, elevation, latitude, longitude, range, height, and movement on the map or in text.







IsCatalogInMostPopularTable: catalog: 41838, numindb: 618
Update: records affected: 1



GetName: 41838 SHIJIAN-17 (SJ-17)

Hit Count: updated at: Tue, 28 Sep 2021 17:15:27 GMT